FW4092 Weather Reports


time (UTC)temp
C
wind
direction
speed
KPH
gust
KPH
rain 1hr
cm
rain 24hr
cm
rain mn
cm
humidity
%
barometer
mb
20260903230537 16 74 1.6 9.7 0.00 0.28 0.00 46 1006.4
20260903230320 16 76 3.2 9.7 0.00 0.28 0.00 47 1006.5
20260903225538 16 94 3.2 12.9 0.00 0.28 0.00 48 1006.6
20260903225038 16 146 4.8 12.9 0.00 0.28 0.00 47 1006.6
20260903224817 16 145 4.8 12.9 0.00 0.28 0.00 48 1006.7
20260903224314 16 114 3.2 12.9 0.00 0.28 0.00 47 1006.8
20260903223543 16 130 1.6 9.7 0.00 0.30 0.00 51 1006.9
20260903223038 16 84 1.6 6.4 0.00 0.30 0.00 51 1006.9
20260903222805 16 71 1.6 9.7 0.00 0.30 0.00 52 1007.0
20260903222036 15 42 1.6 9.7 0.00 0.30 0.00 54 1007.1
20260903221535 15 25 1.6 8.0 0.00 0.30 0.00 52 1007.1
20260903221036 15 26 1.6 8.0 0.00 0.30 0.00 51 1007.2
20260903220533 15 74 1.6 6.4 0.00 0.30 0.00 52 1007.2
20260903220033 15 60 1.6 9.7 0.00 0.30 0.00 52 1007.4
20260903215534 15 59 3.2 9.7 0.00 0.30 0.00 54 1007.5
20260903215032 15 92 3.2 9.7 0.00 0.30 0.00 53 1007.5
20260903214531 15 76 1.6 9.7 0.00 0.30 0.00 54 1007.8
20260903214039 15 66 1.6 6.4 0.00 0.30 0.00 55 1007.8
20260903213543 14 306 3.2 8.0 0.00 0.30 0.00 54 1007.8
20260903213039 14 316 3.2 8.0 0.00 0.30 0.00 56 1007.8
20260903212533 14 298 3.2 6.4 0.00 0.30 0.00 55 1007.9
20260903212031 14 317 1.6 6.4 0.00 0.30 0.00 55 1007.9
20260903211538 14 315 3.2 6.4 0.00 0.30 0.00 56 1007.8
20260903211031 14 320 3.2 8.0 0.00 0.30 0.00 55 1007.9
20260903210530 14 17 1.6 8.0 0.00 0.30 0.00 58 1007.8
20260903210031 14 57 3.2 8.0 0.00 0.30 0.00 56 1007.8
20260903205810 13 355 3.2 8.0 0.00 0.30 0.00 57 1007.7
20260903205031 13 5 1.6 8.0 0.00 0.30 0.00 56 1007.8
20260903204537 13 307 1.6 8.0 0.00 0.30 0.00 53 1007.8
20260903204031 13 5 0.0 4.8 0.00 0.30 0.00 58 1007.8
20260903203534 13 330 1.6 6.4 0.00 0.30 0.00 59 1007.8
20260903203029 13 327 3.2 8.0 0.00 0.30 0.00 57 1007.9
20260903202530 13 327 3.2 8.0 0.00 0.30 0.00 59 1008.0
20260903202032 13 340 3.2 8.0 0.00 0.30 0.00 60 1008.0
20260903201528 13 26 1.6 4.8 0.00 0.30 0.00 62 1008.1
20260903201259 13 26 1.6 4.8 0.00 0.30 0.00 61 1008.1
20260903200528 13 30 1.6 6.4 0.00 0.30 0.00 62 1008.0
20260903200016 13 29 3.2 8.0 0.00 0.30 0.00 64 1008.1
20260903195510 13 0 3.2 8.0 0.00 0.30 0.00 64 1008.1
20260903195004 13 5 3.2 6.4 0.00 0.30 0.00 64 1008.1
20260903194732 12 18 3.2 6.4 0.00 0.30 0.00 63 1008.1
20260903193955 12 34 3.2 6.4 0.00 0.30 0.00 65 1008.2
20260903193454 12 336 3.2 8.0 0.00 0.30 0.00 64 1008.2
20260903192954 12 343 3.2 8.0 0.00 0.30 0.00 63 1008.2
20260903192454 12 22 3.2 6.4 0.00 0.33 0.00 63 1008.1
20260903192238 12 36 3.2 8.0 0.00 0.33 0.00 66 1008.3
20260903191456 12 38 3.2 9.7 0.00 0.36 0.00 66 1008.3
20260903191237 12 298 4.8 9.7 0.00 0.36 0.00 64 1008.3
20260903190457 12 338 4.8 8.0 0.00 0.36 0.00 64 1008.2
20260903185952 12 313 4.8 9.7 0.00 0.36 0.00 65 1008.2
20260903185453 12 344 4.8 12.9 0.00 0.36 0.00 65 1008.3
20260903184953 12 342 4.8 12.9 0.00 0.36 0.00 65 1008.3
20260903184727 12 325 4.8 12.9 0.00 0.36 0.00 65 1008.2
20260903183953 12 329 3.2 12.9 0.00 0.36 0.00 65 1008.3
20260903183452 12 346 3.2 8.0 0.00 0.36 0.00 65 1008.3
20260903182953 12 24 1.6 8.0 0.00 0.36 0.00 68 1008.4
20260903182452 12 322 1.6 6.4 0.00 0.36 0.00 68 1008.4
20260903181950 12 26 0.0 4.8 0.00 0.36 0.00 67 1008.4
20260903181448 11 27 1.6 6.4 0.00 0.36 0.00 68 1008.4
20260903180942 11 19 1.6 6.4 0.00 0.36 0.00 70 1008.4
20260903180725 11 348 1.6 6.4 0.00 0.36 0.00 70 1008.4
20260903175931 11 349 3.2 8.0 0.00 0.36 0.00 70 1008.4
20260903175423 11 311 1.6 8.0 0.00 0.36 0.00 71 1008.5
20260903174918 11 321 1.6 4.8 0.00 0.36 0.00 73 1008.5
20260903174653 11 322 1.6 4.8 0.00 0.36 0.00 74 1008.6
20260903173909 10 321 1.6 4.8 0.00 0.36 0.00 73 1008.6
20260903173636 10 321 1.6 6.4 0.00 0.36 0.00 75 1008.5
20260903172854 10 313 1.6 6.4 0.00 0.36 0.00 75 1008.5
20260903172348 10 309 1.6 6.4 0.00 0.36 0.00 76 1008.4
20260903171842 10 313 3.2 6.4 0.00 0.36 0.00 76 1008.5
20260903171336 10 310 3.2 6.4 0.00 0.36 0.00 76 1008.5
20260903170836 10 314 3.2 6.4 0.00 0.36 0.00 78 1008.4
20260903170336 10 331 3.2 6.4 0.00 0.36 0.00 78 1008.5
20260903165847 10 340 1.6 6.4 0.00 0.36 0.00 78 1008.5
20260903165345 10 305 1.6 6.4 0.00 0.36 0.00 77 1008.5
20260903164836 10 308 1.6 6.4 0.00 0.36 0.00 77 1008.5
20260903164336 10 291 1.6 6.4 0.00 0.36 0.00 77 1008.5
20260903163836 10 163 1.6 6.4 0.00 0.36 0.00 77 1008.5
20260903163336 10 142 1.6 6.4 0.00 0.36 0.00 78 1008.4
20260903162838 10 138 1.6 6.4 0.00 0.36 0.00 78 1008.3
20260903162336 10 134 1.6 4.8 0.00 0.36 0.00 80 1008.3
20260903161836 10 133 0.0 4.8 0.00 0.36 0.00 80 1008.2
20260903161334 9 130 1.6 4.8 0.00 0.36 0.00 81 1008.3
20260903160832 9 130 1.6 6.4 0.00 0.36 0.00 82 1008.4
20260903160334 9 129 1.6 6.4 0.00 0.36 0.00 83 1008.4
20260903160118 9 128 1.6 6.4 0.00 0.36 0.00 83 1008.4
20260903155344 8 124 3.2 6.4 0.00 0.36 0.00 83 1008.5
20260903154841 8 123 1.6 6.4 0.00 0.36 0.00 82 1008.5
20260903154325 8 121 1.6 6.4 0.00 0.36 0.00 83 1008.6
20260903153820 8 121 0.0 3.2 0.00 0.36 0.00 83 1008.6
20260903153314 8 121 0.0 3.2 0.00 0.36 0.00 85 1008.7
20260903152815 8 123 0.0 3.2 0.00 0.36 0.00 86 1008.7
20260903152311 7 123 0.0 0.0 0.00 0.36 0.00 86 1008.5
20260903151820 7 123 0.0 0.0 0.00 0.36 0.00 86 1008.5
20260903151317 7 123 0.0 4.8 0.00 0.36 0.00 86 1008.6
20260903150818 7 123 1.6 4.8 0.00 0.36 0.00 87 1008.6
20260903150319 7 128 0.0 3.2 0.00 0.36 0.00 86 1008.6
20260903145817 7 130 0.0 1.6 0.00 0.36 0.00 86 1008.5
20260903145316 7 130 0.0 3.2 0.00 0.36 0.00 86 1008.6
20260903144818 7 130 0.0 3.2 0.00 0.36 0.00 87 1008.6
20260903144544 7 130 0.0 0.0 0.00 0.36 0.00 87 1008.4
20260903143819 7 130 0.0 0.0 0.00 0.36 0.00 87 1008.4
20260903143312 6 130 0.0 0.0 0.00 0.36 0.00 87 1008.5
20260903142833 6 130 0.0 4.8 0.00 0.36 0.00 87 1008.5
20260903142829 6 130 0.0 0.0 0.00 0.36 0.00 87 1008.5
20260903142041 6 130 1.6 4.8 0.00 0.36 0.00 88 1008.5
20260903141312 6 130 1.6 8.0 0.00 0.36 0.00 88 1008.5
20260903140811 6 130 1.6 8.0 0.00 0.36 0.00 87 1008.5
20260903140310 6 133 1.6 6.4 0.00 0.36 0.00 87 1008.5
20260903140026 7 132 3.2 8.0 0.00 0.36 0.00 87 1008.4
20260903135808 7 132 3.2 8.0 0.00 0.36 0.00 87 1008.4
20260903135306 7 131 3.2 11.3 0.00 0.36 0.00 87 1008.3
20260903135025 7 136 3.2 11.3 0.00 0.36 0.00 87 1008.3
20260903134247 7 141 1.6 9.7 0.00 0.36 0.00 87 1008.3
20260903133743 7 134 0.0 9.7 0.00 0.36 0.00 87 1008.3
20260903133235 7 134 0.0 0.0 0.00 0.36 0.00 87 1008.3
20260903132729 7 134 0.0 3.2 0.00 0.36 0.00 88 1008.4
20260903132223 6 135 1.6 4.8 0.00 0.36 0.00 89 1008.3
20260903131719 6 136 1.6 4.8 0.00 0.36 0.00 89 1008.4
20260903131211 6 136 0.0 4.8 0.00 0.36 0.00 89 1008.4
20260903130707 6 136 1.6 6.4 0.00 0.36 0.00 89 1008.4
20260903130159 6 136 3.2 6.4 0.00 0.36 0.00 90 1008.4
20260903125653 6 128 1.6 6.4 0.00 0.36 0.00 90 1008.4
20260903125147 6 129 0.0 4.8 0.00 0.36 0.00 89 1008.3
20260903124915 6 129 3.2 6.4 0.00 0.36 0.00 89 1008.3
20260903124135 7 129 3.2 6.4 0.00 0.36 0.00 89 1008.3
20260903123629 6 136 1.6 6.4 0.00 0.36 0.00 90 1008.3
20260903123124 6 158 0.0 3.2 0.00 0.36 0.00 90 1008.2
20260903122620 6 160 0.0 0.0 0.00 0.36 0.00 89 1008.2
20260903122112 6 160 0.0 0.0 0.00 0.36 0.00 89 1008.3
20260903121609 6 160 0.0 0.0 0.00 0.36 0.00 88 1008.3
20260903121059 6 160 0.0 0.0 0.00 0.36 0.00 87 1008.3
20260903120553 6 160 0.0 0.0 0.00 0.36 0.00 86 1008.3
20260903120047 6 160 0.0 0.0 0.00 0.36 0.00 86 1008.3
20260903115542 7 159 0.0 0.0 0.00 0.36 0.00 85 1008.3
20260903115035 7 159 0.0 0.0 0.00 0.36 0.00 85 1008.3
20260903114529 7 159 0.0 0.0 0.00 0.36 0.00 86 1008.3
20260903114024 7 159 0.0 6.4 0.00 0.36 0.00 86 1008.4
20260903113517 7 159 0.0 6.4 0.00 0.36 0.00 86 1008.4
20260903113011 7 278 0.0 3.2 0.00 0.36 0.00 86 1008.3
20260903112505 7 279 0.0 0.0 0.00 0.36 0.00 86 1008.4
20260903111959 7 279 0.0 0.0 0.00 0.36 0.00 86 1008.4
20260903111453 7 279 0.0 1.6 0.00 0.36 0.00 86 1008.3
20260903110948 7 279 0.0 1.6 0.00 0.36 0.00 85 1008.3
20260903110441 7 281 0.0 0.0 0.00 0.36 0.00 85 1008.3
20260903105938 7 281 0.0 0.0 0.00 0.36 0.00 85 1008.4
20260903105440 7 281 0.0 0.0 0.00 0.36 0.00 85 1008.4
20260903104937 7 280 0.0 0.0 0.00 0.36 0.00 85 1008.3
20260903104436 7 281 0.0 1.6 0.00 0.36 0.00 85 1008.4
20260903103934 7 281 0.0 1.6 0.00 0.36 0.00 85 1008.5
20260903103431 7 281 0.0 1.6 0.00 0.36 0.00 84 1008.4
20260903102929 7 281 0.0 0.0 0.00 0.36 0.00 84 1008.5
20260903102427 7 281 0.0 0.0 0.00 0.36 0.00 84 1008.4
20260903101935 7 281 0.0 0.0 0.00 0.36 0.00 84 1008.4
20260903101431 7 281 0.0 0.0 0.00 0.36 0.00 84 1008.4
20260903100926 7 281 0.0 0.0 0.00 0.36 0.00 84 1008.4
20260903100424 8 281 0.0 0.0 0.00 0.36 0.00 83 1008.5
20260903095921 8 281 0.0 0.0 0.00 0.36 0.00 83 1008.4
20260903095418 8 281 0.0 0.0 0.00 0.36 0.00 83 1008.4
20260903094917 8 281 0.0 0.0 0.00 0.36 0.00 82 1008.3
20260903094417 8 281 0.0 0.0 0.00 0.36 0.00 82 1008.3
20260903093917 8 281 0.0 0.0 0.00 0.36 0.00 82 1008.2
20260903093417 8 281 0.0 1.6 0.00 0.36 0.00 82 1008.2
20260903092912 8 281 0.0 1.6 0.00 0.36 0.00 82 1008.2
20260903092639 8 281 0.0 0.0 0.00 0.36 0.00 81 1008.2
20260903091913 9 281 0.0 3.2 0.00 0.36 0.00 81 1008.3
20260903091412 9 281 0.0 3.2 0.00 0.36 0.00 80 1008.2
20260903091145 9 279 0.0 3.2 0.00 0.36 0.00 80 1008.4
20260903090414 9 279 0.0 3.2 0.00 0.36 0.00 79 1008.3
20260903085914 9 279 0.0 0.0 0.00 0.36 0.00 77 1008.3
20260903085413 9 279 0.0 3.2 0.00 0.36 0.00 78 1008.3
20260903084913 9 279 0.0 3.2 0.00 0.36 0.00 76 1008.3
20260903084413 9 279 0.0 4.8 0.00 0.36 0.00 77 1008.2
20260903083914 9 279 1.6 4.8 0.00 0.36 0.00 77 1008.3
20260903083413 9 289 1.6 9.7 0.00 0.36 0.00 77 1008.3
20260903082913 9 289 1.6 9.7 0.00 0.36 0.00 77 1008.2
20260903082413 9 350 0.0 3.2 0.00 0.36 0.00 78 1008.3
20260903081912 9 355 0.0 3.2 0.00 0.36 0.00 78 1008.4
20260903081411 9 351 1.6 6.4 0.00 0.36 0.00 77 1008.4
20260903080910 10 351 1.6 6.4 0.00 0.36 0.00 77 1008.3
20260903080420 10 336 1.6 6.4 0.00 0.36 0.00 77 1008.2
20260903075918 10 332 3.2 6.4 0.00 0.36 0.00 76 1008.1
20260903075409 10 310 3.2 12.9 0.00 0.36 0.00 77 1008.1
20260903074910 10 309 3.2 12.9 0.00 0.36 0.00 76 1008.2
20260903074408 10 296 4.8 16.1 0.00 0.36 0.00 77 1008.2
20260903073900 10 298 4.8 16.1 0.00 0.36 0.00 77 1008.2
20260903073354 10 332 4.8 14.5 0.00 0.36 0.00 77 1008.1
20260903073122 10 308 4.8 14.5 0.00 0.36 0.00 77 1008.2
20260903072342 10 286 6.4 14.5 0.00 0.36 0.00 77 1008.2
20260903071836 10 290 6.4 14.5 0.00 0.36 0.00 76 1008.2
20260903071330 10 259 6.4 16.1 0.00 0.36 0.00 76 1008.2
20260903070824 10 296 6.4 16.1 0.00 0.36 0.00 76 1008.0
20260903070319 10 286 4.8 16.1 0.00 0.36 0.00 76 1007.9
20260903065813 10 299 4.8 16.1 0.00 0.36 0.36 76 1007.9
20260903065308 10 277 6.4 16.1 0.00 0.36 0.36 77 1007.8
20260903064802 10 290 6.4 20.9 0.00 0.36 0.36 77 1007.7
20260903064259 10 247 3.2 20.9 0.00 0.36 0.36 79 1007.8
20260903063751 10 233 0.0 8.0 0.00 0.36 0.36 82 1007.8
20260903063522 10 203 1.6 8.0 0.00 0.36 0.36 82 1007.9
20260903062738 10 202 1.6 8.0 0.00 0.36 0.36 83 1007.8
20260903062241 10 133 0.0 3.2 0.00 0.36 0.36 85 1007.8
20260903061738 10 46 0.0 1.6 0.00 0.36 0.36 85 1007.8
20260903061239 10 46 0.0 3.2 0.00 0.36 0.36 84 1007.5
20260903060739 10 46 0.0 4.8 0.00 0.36 0.36 84 1007.5
20260903060239 10 44 0.0 4.8 0.00 0.36 0.36 85 1007.5
20260903060016 10 318 0.0 1.6 0.00 0.36 0.36 85 1007.7
20260903055306 10 318 1.6 4.8 0.03 0.36 0.36 85 1007.9
20260903055258 10 318 0.0 3.2 0.00 0.36 0.36 85 1007.8
20260903054234 10 318 1.6 4.8 0.03 0.36 0.36 85 1007.4
20260903053732 10 325 0.0 4.8 0.03 0.36 0.36 84 1007.5
20260903053233 10 307 0.0 0.0 0.03 0.36 0.36 83 1007.5
20260903052728 11 308 0.0 3.2 0.03 0.36 0.36 82 1007.2
20260903052226 11 308 1.6 6.4 0.03 0.36 0.36 82 1007.1
20260903051726 11 308 4.8 14.5 0.03 0.36 0.36 81 1007.1
20260903051226 11 290 4.8 16.1 0.03 0.36 0.36 81 1007.7
20260903051008 11 339 3.2 16.1 0.03 0.36 0.36 81 1007.9
20260903050225 11 296 3.2 11.3 0.03 0.36 0.36 81 1007.9
20260903045723 11 281 3.2 9.7 0.03 0.36 0.36 81 1007.7
20260903045232 11 291 3.2 8.0 0.03 0.36 0.36 81 1007.5
20260903044733 11 290 1.6 4.8 0.00 0.33 0.33 81 1007.4
20260903044224 11 290 1.6 6.4 0.00 0.33 0.33 81 1007.4
20260903043718 11 286 1.6 6.4 0.00 0.33 0.33 80 1007.3
20260903043210 11 241 1.6 6.4 0.00 0.33 0.33 79 1007.4
20260903042937 11 209 1.6 4.8 0.00 0.33 0.33 80 1007.3
20260903042159 11 207 3.2 8.0 0.00 0.33 0.33 79 1007.0
20260903041656 11 204 3.2 9.7 0.00 0.33 0.33 79 1006.9
20260903041154 11 191 1.6 9.7 0.00 0.33 0.33 79 1006.7
20260903040652 11 186 1.6 9.7 0.00 0.33 0.33 79 1006.7
20260903040152 11 192 3.2 9.7 0.00 0.33 0.33 79 1006.7
20260903035651 11 191 3.2 12.9 0.00 0.33 0.33 79 1006.5
20260903035152 11 179 3.2 12.9 0.00 0.33 0.33 79 1006.5
20260903034652 11 145 4.8 16.1 0.00 0.33 0.33 80 1006.5
20260903034152 11 213 4.8 16.1 0.00 0.33 0.33 80 1006.5
20260903033651 11 188 3.2 9.7 0.00 0.33 0.33 81 1006.5
20260903033430 11 183 3.2 9.7 0.00 0.33 0.33 80 1006.4
20260903032648 11 185 3.2 9.7 0.00 0.33 0.33 81 1006.2
20260903032148 11 180 3.2 14.5 0.00 0.33 0.33 80 1006.2
20260903031648 11 201 6.4 14.5 0.00 0.33 0.33 80 1006.4
20260903031147 11 187 6.4 14.5 0.00 0.33 0.33 80 1006.4
20260903030648 10 196 4.8 14.5 0.00 0.33 0.33 81 1006.4
20260903030147 10 201 4.8 12.9 0.00 0.33 0.33 81 1006.2
20260903025932 10 192 3.2 11.3 0.00 0.33 0.33 82 1006.1
20260903025148 10 191 1.6 8.0 0.00 0.33 0.33 82 1006.1
20260903024648 10 189 1.6 9.7 0.00 0.33 0.33 83 1006.1
20260903024146 10 150 1.6 9.7 0.00 0.33 0.33 83 1006.1
20260903023929 10 190 3.2 9.7 0.00 0.33 0.33 83 1006.1
20260903023146 10 148 3.2 14.5 0.00 0.33 0.33 84 1006.1
20260903022912 11 152 3.2 14.5 0.00 0.33 0.33 83 1006.0
20260903022209 11 145 4.8 16.1 0.03 0.33 0.33 83 1006.1
20260903022202 11 150 3.2 12.9 0.00 0.33 0.33 83 1006.2
20260903021144 11 158 6.4 24.1 0.03 0.33 0.33 82 1006.4
20260903020644 10 215 6.4 24.1 0.03 0.33 0.33 82 1005.9
20260903020412 10 147 3.2 11.3 0.05 0.33 0.33 90 1006.7
20260903015644 10 126 3.2 9.7 0.10 0.33 0.33 90 1006.6
20260903015424 10 125 3.2 9.7 0.13 0.33 0.33 90 1006.6
20260903014644 10 123 3.2 9.7 0.15 0.33 0.33 90 1006.5
20260903014143 10 143 1.6 6.4 0.18 0.33 0.33 89 1006.8
20260903013643 10 144 3.2 11.3 0.18 0.33 0.33 88 1006.7
20260903013422 10 180 4.8 11.3 0.20 0.33 0.33 86 1006.5
20260903012638 10 224 4.8 11.3 0.20 0.33 0.33 86 1006.2
20260903012131 10 194 4.8 14.5 0.20 0.33 0.33 87 1006.7
20260903011625 10 228 4.8 14.5 0.18 0.30 0.30 87 1007.1
20260903011119 10 240 6.4 12.9 0.18 0.30 0.30 87 1007.3
20260903010613 10 223 4.8 11.3 0.18 0.30 0.30 86 1007.4
20260903010109 11 227 6.4 12.9 0.15 0.28 0.28 85 1007.4
20260903005601 11 242 6.4 14.5 0.13 0.23 0.23 84 1007.5
20260903005056 11 259 8.0 24.1 0.10 0.20 0.20 82 1007.3
20260903004548 12 257 6.4 25.7 0.10 0.18 0.18 79 1007.1
20260903004043 12 263 4.8 25.7 0.08 0.15 0.15 80 1007.0
20260903003536 12 258 4.8 17.7 0.08 0.15 0.15 85 1007.1
20260903003031 12 298 3.2 17.7 0.05 0.13 0.13 85 1007.0
20260903002811 13 286 3.2 11.3 0.05 0.13 0.13 86 1006.9
20260903002019 13 286 3.2 11.3 0.05 0.13 0.13 85 1007.0
20260903001512 13 272 4.8 12.9 0.05 0.13 0.13 84 1006.8
20260903001015 13 258 6.4 12.9 0.05 0.13 0.13 83 1006.7
20260903000500 13 202 6.4 14.5 0.05 0.13 0.13 82 1006.6
20260902235955 13 196 8.0 17.7 0.03 0.10 0.13 81 1006.6
20260902235449 13 219 8.0 17.7 0.03 0.10 0.10 79 1006.5
20260902234947 14 219 6.4 16.1 0.00 0.08 0.10 77 1006.4
20260902234437 15 196 6.4 16.1 0.00 0.08 0.08 73 1006.1
20260902233931 15 209 6.4 16.1 0.00 0.08 0.08 72 1006.2
20260902233426 15 211 6.4 16.1 0.03 0.08 0.08 71 1006.0
20260902233158 15 178 6.4 16.1 0.03 0.08 0.08 72 1006.0
20260902232414 14 181 6.4 24.1 0.03 0.08 0.08 72 1006.0
20260902231909 14 198 6.4 24.1 0.03 0.08 0.08 72 1006.0
20260902231409 14 179 9.7 24.1 0.03 0.08 0.08 72 1006.0
20260902231404 14 178 8.0 24.1 0.03 0.08 0.08 72 1006.0